Location: Trebic
(49.2170°N, 15.8830°E)
Time: 07:00:48
(UTC+02:00)

Transit 2A Rocket - Pass Details

Date: 30 July 2019
Orbit: 590 x 913 km, 66.7° (Epoch: 20 August)

Event Time Altitude Azimuth Distance (km) Brightness Sun altitude
Rises 02:40:26 0° 224° (SW) 3,499 - -18.8°
Reaches altitude 10° 02:43:02 10° 227° (SW) 2,535 - -18.6°
Exits shadow 02:45:45 28° 235° (SW) 1,577 6.1 -18.4°
Maximum altitude 02:48:53 66° 309° (NW) 918 5.4 -18.2°
Drops below altitude 10° 02:54:21 10° 32° (NNE) 2,362 8.8 -17.8°
Sets 02:56:41 0° 35° (NE) 3,243 9.9 -17.6°
